{"data":{"norad_id":65687,"intl_designator":"2025-212M","name":"STARLINK-34856","alt_names":[],"object_type":"PAYLOAD","status":"ACTIVE","operator":null,"country":"US","launch_date":"2025-09-21","launch_site_code":"AFETR","launch_vehicle":null,"mission":null,"orbit_class":"UNKNOWN","rcs_meters":null,"size_class":null,"mass_kg":null,"dimensions":null,"purposes":["comms"],"wikipedia_slug":null,"has_3d_model":false,"image_url":null,"decayed_at":null,"tle_current":{"epoch":"2026-09-19T23:54:28.045152Z","epoch_age_seconds":152426,"freshness":"FRESH","line1":"1 65687U 25212M   26262.99615793  .00020303  00000+0  66387-3 0  9991","line2":"2 65687  53.1597 161.6590 0001252  95.9300 264.1844 15.31716901 56967","mean_motion":15.31716901,"eccentricity":0.0001252,"inclination_deg":53.1597,"raan_deg":161.659,"arg_perigee_deg":95.93,"mean_anomaly_deg":264.1844,"bstar":0.00066387,"rev_number":5696,"period_min":94.012150617381,"perigee_km":469.8321415952,"apogee_km":471.54708777952,"semimajor_km":6848.8266146874,"source":"CELESTRAK","updated_at":"2026-09-21T09:00:35.687145Z"}}}